Time,TemperatureF,DewpointF,PressureIn,WindDirection,WindDirectionDegrees,WindSpeedMPH,WindSpeedGustMPH,Humidity,HourlyPrecipIn,Conditions,Clouds,dailyrainin,SoftwareType,DateUTC
2013-04-20 00:03:00,37.0,33.0,29.88,WSW,240,7.0,14.0,84,0.00,,,0.95,,2013-04-20 04:03:00,
2013-04-20 00:12:00,37.0,33.0,29.88,WSW,240,7.0,14.0,84,0.00,,,0.95,,2013-04-20 04:12:00,
2013-04-20 00:23:00,37.0,32.0,29.88,West,261,7.0,14.0,83,0.00,,,0.77,,2013-04-20 04:23:00,
2013-04-20 00:33:00,36.0,31.0,29.88,WSW,256,7.0,14.0,83,0.00,,,0.77,,2013-04-20 04:33:00,
2013-04-20 00:42:00,36.0,31.0,29.88,WSW,256,7.0,14.0,83,0.00,,,0.77,,2013-04-20 04:42:00,
2013-04-20 00:53:00,36.0,32.0,29.88,WSW,255,6.0,12.0,84,0.00,,,0.77,,2013-04-20 04:53:00,
2013-04-20 01:02:00,37.0,33.0,29.89,NNW,347,6.0,11.0,84,0.00,,,0.77,,2013-04-20 05:02:00,
2013-04-20 01:12:00,37.0,33.0,29.89,NNW,347,6.0,11.0,84,0.00,,,0.77,,2013-04-20 05:12:00,
2013-04-20 01:22:00,34.0,31.0,29.90,NW,308,7.0,15.0,87,0.00,,,0.59,,2013-04-20 05:22:00,
2013-04-20 01:32:00,34.0,31.0,29.90,SW,236,5.0,10.0,87,0.00,,,0.59,,2013-04-20 05:32:00,
2013-04-20 01:43:00,34.0,31.0,29.90,SW,236,5.0,10.0,87,0.00,,,0.59,,2013-04-20 05:43:00,
2013-04-20 01:52:00,34.0,30.0,29.91,West,259,5.0,10.0,85,0.00,,,0.59,,2013-04-20 05:52:00,
2013-04-20 02:02:00,35.0,31.0,29.91,WSW,249,4.0,8.0,85,0.00,,,0.59,,2013-04-20 06:02:00,
2013-04-20 02:12:00,35.0,31.0,29.91,WSW,249,4.0,8.0,85,0.00,,,0.59,,2013-04-20 06:12:00,
2013-04-20 02:21:00,35.0,32.0,29.91,SSW,205,3.0,8.0,87,0.00,,,0.35,,2013-04-20 06:21:00,
2013-04-20 02:32:00,35.0,30.0,29.92,WSW,251,5.0,14.0,83,0.00,,,0.35,,2013-04-20 06:32:00,
2013-04-20 02:42:00,35.0,30.0,29.92,WSW,251,5.0,14.0,83,0.00,,,0.35,,2013-04-20 06:42:00,
2013-04-20 02:52:00,35.0,30.0,29.93,West,262,7.0,12.0,82,0.00,,,0.35,,2013-04-20 06:52:00,
2013-04-20 03:01:00,35.0,30.0,29.93,West,276,5.0,9.0,83,0.00,,,0.35,,2013-04-20 07:01:00,
2013-04-20 03:11:00,35.0,30.0,29.93,West,276,5.0,9.0,83,0.00,,,0.35,,2013-04-20 07:11:00,
2013-04-20 03:22:00,35.0,31.0,29.93,SSE,153,3.0,10.0,85,0.00,,,0.15,,2013-04-20 07:22:00,
2013-04-20 03:32:00,35.0,31.0,29.94,SW,224,4.0,9.0,86,0.00,,,0.15,,2013-04-20 07:32:00,
2013-04-20 03:42:00,35.0,31.0,29.94,SW,224,4.0,9.0,86,0.00,,,0.15,,2013-04-20 07:42:00,
2013-04-20 03:52:00,35.0,31.0,29.94,WNW,288,5.0,13.0,85,0.00,,,0.15,,2013-04-20 07:52:00,
2013-04-20 04:02:00,35.0,30.0,29.95,WSW,243,6.0,10.0,83,0.00,,,0.15,,2013-04-20 08:02:00,
2013-04-20 04:11:00,35.0,30.0,29.95,WSW,243,6.0,10.0,83,0.00,,,0.15,,2013-04-20 08:11:00,
2013-04-20 04:21:00,35.0,31.0,29.96,WNW,295,7.0,11.0,84,0.00,,,0.02,,2013-04-20 08:21:00,
2013-04-20 04:32:00,34.0,31.0,29.97,NW,314,6.0,11.0,88,0.00,,,0.02,,2013-04-20 08:32:00,
2013-04-20 04:42:00,34.0,31.0,29.97,NW,314,6.0,11.0,88,0.00,,,0.02,,2013-04-20 08:42:00,
2013-04-20 04:52:00,33.0,30.0,29.98,WNW,299,5.0,13.0,89,0.00,,,0.02,,2013-04-20 08:52:00,
2013-04-20 05:02:00,33.0,30.0,29.98,West,278,4.0,11.0,89,0.00,,,0.02,,2013-04-20 09:02:00,
2013-04-20 05:12:00,33.0,30.0,29.98,West,278,4.0,11.0,89,0.00,,,0.02,,2013-04-20 09:12:00,
2013-04-20 05:21:00,33.0,30.0,29.99,WNW,297,3.0,7.0,89,0.00,,,0.00,,2013-04-20 09:21:00,
2013-04-20 05:33:00,33.0,30.0,30.00,NW,308,6.0,10.0,89,0.00,,,0.00,,2013-04-20 09:33:00,
2013-04-20 05:43:00,33.0,30.0,30.00,NW,308,6.0,10.0,89,0.00,,,0.00,,2013-04-20 09:43:00,
2013-04-20 05:53:00,33.0,30.0,30.01,WNW,303,5.0,12.0,89,0.00,,,0.00,,2013-04-20 09:53:00,
2013-04-20 06:03:00,33.0,30.0,30.01,NW,304,5.0,10.0,88,0.00,,,0.00,,2013-04-20 10:03:00,
2013-04-20 06:13:00,33.0,30.0,30.01,NW,304,5.0,10.0,88,0.00,,,0.00,,2013-04-20 10:13:00,
2013-04-20 06:23:00,33.0,30.0,30.02,WNW,284,4.0,6.0,87,0.00,,,0.00,,2013-04-20 10:23:00,
2013-04-20 06:33:00,33.0,29.0,30.03,NNW,330,5.0,8.0,85,0.00,,,0.00,,2013-04-20 10:33:00,
2013-04-20 06:42:00,33.0,29.0,30.03,NNW,330,5.0,8.0,85,0.00,,,0.00,,2013-04-20 10:42:00,
2013-04-20 06:53:00,33.0,29.0,30.03,WNW,296,3.0,7.0,85,0.00,,,0.00,,2013-04-20 10:53:00,
2013-04-20 07:02:00,33.0,28.0,30.04,West,274,4.0,9.0,83,0.00,,,0.00,,2013-04-20 11:02:00,
2013-04-20 07:12:00,33.0,28.0,30.04,West,274,4.0,9.0,83,0.00,,,0.00,,2013-04-20 11:12:00,
2013-04-20 07:23:00,33.0,28.0,30.05,WNW,303,3.0,11.0,82,0.00,,,0.00,,2013-04-20 11:23:00,
2013-04-20 07:32:00,33.0,28.0,30.06,WNW,293,4.0,8.0,80,0.00,,,0.00,,2013-04-20 11:32:00,
2013-04-20 07:42:00,33.0,28.0,30.06,WNW,293,4.0,8.0,80,0.00,,,0.00,,2013-04-20 11:42:00,
2013-04-20 07:53:00,34.0,28.0,30.06,NW,309,3.0,7.0,80,0.00,,,0.00,,2013-04-20 11:53:00,
2013-04-20 08:02:00,34.0,28.0,30.08,NW,307,4.0,8.0,77,0.00,,,0.00,,2013-04-20 12:02:00,
2013-04-20 08:11:00,34.0,28.0,30.08,NW,307,4.0,8.0,77,0.00,,,0.00,,2013-04-20 12:11:00,
2013-04-20 08:23:00,34.0,27.0,30.09,NW,311,7.0,11.0,74,0.00,,,0.00,,2013-04-20 12:23:00,
2013-04-20 08:32:00,34.0,26.0,30.10,West,268,7.0,12.0,71,0.00,,,0.00,,2013-04-20 12:32:00,
2013-04-20 08:42:00,34.0,26.0,30.10,West,268,7.0,12.0,71,0.00,,,0.00,,2013-04-20 12:42:00,
2013-04-20 08:52:00,34.0,25.0,30.11,WNW,288,7.0,12.0,70,0.00,,,0.00,,2013-04-20 12:52:00,
2013-04-20 09:02:00,34.0,26.0,30.12,West,274,4.0,9.0,71,0.00,,,0.00,,2013-04-20 13:02:00,
2013-04-20 09:11:00,34.0,26.0,30.12,West,274,4.0,9.0,71,0.00,,,0.00,,2013-04-20 13:11:00,
2013-04-20 09:22:00,35.0,26.0,30.13,WNW,292,5.0,9.0,69,0.00,,,0.00,,2013-04-20 13:22:00,
2013-04-20 09:32:00,36.0,26.0,30.14,WNW,291,7.0,13.0,68,0.00,,,0.00,,2013-04-20 13:32:00,
2013-04-20 09:42:00,36.0,26.0,30.14,WNW,291,7.0,13.0,68,0.00,,,0.00,,2013-04-20 13:42:00,
2013-04-20 09:52:00,35.0,24.0,30.15,NW,312,8.0,14.0,63,0.00,,,0.00,,2013-04-20 13:52:00,
2013-04-20 10:02:00,36.0,24.0,30.16,NNW,333,8.0,13.0,62,0.00,,,0.00,,2013-04-20 14:02:00,
2013-04-20 10:11:00,36.0,24.0,30.16,NNW,333,8.0,13.0,62,0.00,,,0.00,,2013-04-20 14:11:00,
2013-04-20 10:21:00,36.0,21.0,30.16,NW,309,9.0,14.0,55,0.00,,,0.00,,2013-04-20 14:21:00,
2013-04-20 10:32:00,37.0,23.0,30.17,West,280,8.0,15.0,56,0.00,,,0.00,,2013-04-20 14:32:00,
2013-04-20 10:42:00,37.0,23.0,30.17,West,280,8.0,15.0,56,0.00,,,0.00,,2013-04-20 14:42:00,
2013-04-20 10:52:00,37.0,24.0,30.18,North,4,6.0,11.0,58,0.00,,,0.00,,2013-04-20 14:52:00,
2013-04-20 11:02:00,37.0,23.0,30.19,NW,319,7.0,12.0,57,0.00,,,0.00,,2013-04-20 15:02:00,
2013-04-20 11:12:00,37.0,23.0,30.19,NW,319,7.0,12.0,57,0.00,,,0.00,,2013-04-20 15:12:00,
2013-04-20 11:21:00,37.0,24.0,30.19,WNW,291,6.0,11.0,60,0.00,,,0.00,,2013-04-20 15:21:00,
2013-04-20 11:33:00,38.0,25.0,30.20,West,268,7.0,12.0,59,0.00,,,0.00,,2013-04-20 15:33:00,
2013-04-20 11:43:00,38.0,25.0,30.20,West,268,7.0,12.0,59,0.00,,,0.00,,2013-04-20 15:43:00,
2013-04-20 11:53:00,38.0,25.0,30.21,NW,320,7.0,12.0,60,0.00,,,0.00,,2013-04-20 15:53:00,
2013-04-20 12:03:00,38.0,25.0,30.22,WNW,285,6.0,12.0,58,0.00,,,0.00,,2013-04-20 16:03:00,
2013-04-20 12:12:00,38.0,25.0,30.22,WNW,285,6.0,12.0,58,0.00,,,0.00,,2013-04-20 16:12:00,
2013-04-20 12:23:00,38.0,24.0,30.22,NW,321,7.0,15.0,57,0.00,,,0.00,,2013-04-20 16:23:00,
2013-04-20 12:33:00,39.0,24.0,30.23,NNW,328,10.0,15.0,55,0.00,,,0.00,,2013-04-20 16:33:00,
2013-04-20 12:42:00,39.0,24.0,30.23,NNW,328,10.0,15.0,55,0.00,,,0.00,,2013-04-20 16:42:00,
2013-04-20 12:53:00,39.0,25.0,30.23,NW,318,6.0,11.0,56,0.00,,,0.00,,2013-04-20 16:53:00,
2013-04-20 13:02:00,40.0,24.0,30.24,WNW,290,7.0,12.0,53,0.00,,,0.00,,2013-04-20 17:02:00,
2013-04-20 13:12:00,40.0,24.0,30.24,WNW,290,7.0,12.0,53,0.00,,,0.00,,2013-04-20 17:12:00,
2013-04-20 13:23:00,40.0,25.0,30.23,NW,304,6.0,14.0,54,0.00,,,0.00,,2013-04-20 17:23:00,
2013-04-20 13:33:00,40.0,25.0,30.24,SW,223,9.0,12.0,54,0.00,,,0.00,,2013-04-20 17:33:00,
2013-04-20 13:42:00,40.0,25.0,30.24,SW,223,9.0,12.0,54,0.00,,,0.00,,2013-04-20 17:42:00,
2013-04-20 13:52:00,40.0,24.0,30.24,NW,321,8.0,12.0,52,0.00,,,0.00,,2013-04-20 17:52:00,
2013-04-20 14:02:00,41.0,25.0,30.24,WNW,297,6.0,13.0,53,0.00,,,0.00,,2013-04-20 18:02:00,
2013-04-20 14:13:00,41.0,25.0,30.24,WNW,297,6.0,13.0,53,0.00,,,0.00,,2013-04-20 18:13:00,
2013-04-20 14:22:00,40.0,26.0,30.25,WNW,296,7.0,12.0,56,0.00,,,0.00,,2013-04-20 18:22:00,
2013-04-20 14:32:00,41.0,25.0,30.25,West,281,6.0,14.0,52,0.00,,,0.00,,2013-04-20 18:32:00,
2013-04-20 14:42:00,41.0,25.0,30.25,West,281,6.0,14.0,52,0.00,,,0.00,,2013-04-20 18:42:00,
2013-04-20 14:52:00,42.0,25.0,30.26,NW,311,9.0,14.0,51,0.00,,,0.00,,2013-04-20 18:52:00,
2013-04-20 15:02:00,41.0,25.0,30.26,NW,313,8.0,14.0,52,0.00,,,0.00,,2013-04-20 19:02:00,
2013-04-20 15:11:00,41.0,25.0,30.27,WNW,284,8.0,14.0,52,0.00,,,0.00,,2013-04-20 19:11:00,
2013-04-20 15:21:00,41.0,25.0,30.27,WNW,284,8.0,14.0,52,0.00,,,0.00,,2013-04-20 19:21:00,
2013-04-20 15:32:00,42.0,22.0,30.27,West,265,7.0,14.0,45,0.00,,,0.00,,2013-04-20 19:32:00,
2013-04-20 15:42:00,43.0,23.0,30.28,WNW,299,8.0,15.0,45,0.00,,,0.00,,2013-04-20 19:42:00,
2013-04-20 15:52:00,43.0,23.0,30.28,WNW,299,8.0,15.0,45,0.00,,,0.00,,2013-04-20 19:52:00,
2013-04-20 16:02:00,42.0,23.0,30.29,NW,314,9.0,16.0,47,0.00,,,0.00,,2013-04-20 20:02:00,
2013-04-20 16:12:00,42.0,23.0,30.29,NW,314,9.0,16.0,47,0.00,,,0.00,,2013-04-20 20:12:00,
2013-04-20 16:22:00,42.0,23.0,30.29,NW,307,9.0,16.0,46,0.00,,,0.00,,2013-04-20 20:22:00,
2013-04-20 16:32:00,42.0,22.0,30.29,North,359,7.0,17.0,44,0.00,,,0.00,,2013-04-20 20:32:00,
2013-04-20 16:42:00,42.0,22.0,30.29,North,359,7.0,17.0,44,0.00,,,0.00,,2013-04-20 20:42:00,
2013-04-20 16:52:00,42.0,22.0,30.29,NNW,343,11.0,18.0,45,0.00,,,0.00,,2013-04-20 20:52:00,
2013-04-20 17:01:00,43.0,22.0,30.30,NW,308,9.0,15.0,42,0.00,,,0.00,,2013-04-20 21:01:00,
2013-04-20 17:12:00,43.0,22.0,30.30,NW,308,9.0,15.0,42,0.00,,,0.00,,2013-04-20 21:12:00,
2013-04-20 17:22:00,43.0,23.0,30.30,NW,313,8.0,13.0,45,0.00,,,0.00,,2013-04-20 21:22:00,
2013-04-20 17:33:00,43.0,25.0,30.31,NE,44,9.0,17.0,49,0.00,,,0.00,,2013-04-20 21:33:00,
2013-04-20 17:43:00,43.0,25.0,30.31,NE,44,9.0,17.0,49,0.00,,,0.00,,2013-04-20 21:43:00,
2013-04-20 17:53:00,43.0,24.0,30.31,NNW,348,5.0,11.0,46,0.00,,,0.00,,2013-04-20 21:53:00,
2013-04-20 18:03:00,44.0,25.0,30.32,NNW,345,5.0,13.0,47,0.00,,,0.00,,2013-04-20 22:03:00,
2013-04-20 18:12:00,44.0,25.0,30.32,NNW,345,5.0,13.0,47,0.00,,,0.00,,2013-04-20 22:12:00,
2013-04-20 18:23:00,43.0,25.0,30.32,North,360,3.0,8.0,49,0.00,,,0.00,,2013-04-20 22:23:00,
2013-04-20 18:32:00,44.0,26.0,30.32,NW,321,7.0,11.0,49,0.00,,,0.00,,2013-04-20 22:32:00,
2013-04-20 18:42:00,44.0,26.0,30.32,NW,321,7.0,11.0,49,0.00,,,0.00,,2013-04-20 22:42:00,
2013-04-20 18:53:00,44.0,26.0,30.32,NNE,13,6.0,11.0,48,0.00,,,0.00,,2013-04-20 22:53:00,
2013-04-20 19:02:00,43.0,26.0,30.33,NNE,16,3.0,12.0,50,0.00,,,0.00,,2013-04-20 23:02:00,
2013-04-20 19:12:00,43.0,26.0,30.33,NNE,16,3.0,12.0,50,0.00,,,0.00,,2013-04-20 23:12:00,
2013-04-20 19:22:00,43.0,25.0,30.33,NNE,20,8.0,13.0,48,0.00,,,0.00,,2013-04-20 23:22:00,
2013-04-20 19:32:00,43.0,25.0,30.33,NW,320,6.0,9.0,49,0.00,,,0.00,,2013-04-20 23:32:00,
2013-04-20 19:42:00,43.0,25.0,30.33,NW,320,6.0,9.0,49,0.00,,,0.00,,2013-04-20 23:42:00,
2013-04-20 19:53:00,43.0,24.0,30.33,NNE,18,5.0,12.0,47,0.00,,,0.00,,2013-04-20 23:53:00,
2013-04-20 20:01:00,42.0,25.0,30.34,NNE,13,3.0,9.0,51,0.00,,,0.00,,2013-04-21 00:01:00,
2013-04-20 20:12:00,42.0,25.0,30.34,NNE,13,3.0,9.0,51,0.00,,,0.00,,2013-04-21 00:12:00,
2013-04-20 20:22:00,42.0,24.0,30.34,NNW,338,6.0,11.0,48,0.00,,,0.00,,2013-04-21 00:22:00,
2013-04-20 20:32:00,41.0,24.0,30.35,North,11,2.0,8.0,51,0.00,,,0.00,,2013-04-21 00:32:00,
2013-04-20 20:42:00,41.0,24.0,30.35,North,11,2.0,8.0,51,0.00,,,0.00,,2013-04-21 00:42:00,
2013-04-20 20:52:00,40.0,23.0,30.35,North,358,3.0,6.0,51,0.00,,,0.00,,2013-04-21 00:52:00,
2013-04-20 21:01:00,39.0,23.0,30.36,NNE,30,3.0,7.0,53,0.00,,,0.00,,2013-04-21 01:01:00,
2013-04-20 21:12:00,39.0,23.0,30.36,NNE,30,3.0,7.0,53,0.00,,,0.00,,2013-04-21 01:12:00,
2013-04-20 21:21:00,38.0,23.0,30.37,NNE,13,2.0,5.0,55,0.00,,,0.00,,2013-04-21 01:21:00,
2013-04-20 21:32:00,38.0,25.0,30.38,NNE,19,2.0,4.0,58,0.00,,,0.00,,2013-04-21 01:32:00,
2013-04-20 21:42:00,38.0,25.0,30.38,NNE,19,2.0,4.0,58,0.00,,,0.00,,2013-04-21 01:42:00,
2013-04-20 21:52:00,37.0,24.0,30.39,NNE,13,2.0,3.0,58,0.00,,,0.00,,2013-04-21 01:52:00,
2013-04-20 22:02:00,37.0,24.0,30.40,NNE,33,1.0,2.0,59,0.00,,,0.00,,2013-04-21 02:02:00,
2013-04-20 22:11:00,37.0,24.0,30.40,NNE,33,1.0,2.0,59,0.00,,,0.00,,2013-04-21 02:11:00,
2013-04-20 22:22:00,36.0,23.0,30.40,NE,43,0.0,2.0,59,0.00,,,0.00,,2013-04-21 02:22:00,
2013-04-20 22:32:00,36.0,24.0,30.41,NE,41,0.0,1.0,62,0.00,,,0.00,,2013-04-21 02:32:00,
2013-04-20 22:42:00,36.0,24.0,30.41,NE,41,0.0,1.0,62,0.00,,,0.00,,2013-04-21 02:42:00,
2013-04-20 22:52:00,35.0,23.0,30.42,NNE,16,0.0,1.0,61,0.00,,,0.00,,2013-04-21 02:52:00,
2013-04-20 23:01:00,35.0,23.0,30.42,NNE,31,0.0,1.0,61,0.00,,,0.00,,2013-04-21 03:01:00,
2013-04-20 23:11:00,35.0,23.0,30.42,NNE,31,0.0,1.0,61,0.00,,,0.00,,2013-04-21 03:11:00,
2013-04-20 23:22:00,34.0,23.0,30.42,NNE,31,0.0,1.0,64,0.00,,,0.00,,2013-04-21 03:22:00,
2013-04-20 23:33:00,34.0,23.0,30.43,NNE,31,0.0,0.0,65,0.00,,,0.00,,2013-04-21 03:33:00,
2013-04-20 23:42:00,34.0,23.0,30.43,NNE,31,0.0,0.0,65,0.00,,,0.00,,2013-04-21 03:42:00,
2013-04-20 23:53:00,33.0,23.0,30.43,NNE,31,0.0,1.0,67,0.00,,,0.00,,2013-04-21 03:53:00,